[Iaude] MPEC V85: 2023 VN2 [a=1.06,e=0.15,i=9.1,H=26.6]
    mpec at marsden.cfa.harvard.edu 
    mpec at marsden.cfa.harvard.edu
       
    Tue Nov  7 02:58:04 EST 2023
    
    
  
M.P.E.C. 2023-V85                              Issued 2023 November 7, 07:56 UT
     The Minor Planet Electronic Circulars contain information on unusual
         minor planets, routine data on comets and natural satellites,
         and occasional editorial announcements.  They are published
    on behalf of Division F of the International Astronomical Union by the
          Minor Planet Center, Smithsonian Astrophysical Observatory,
                          Cambridge, MA 02138, U.S.A.
			  
             Prepared using the Tamkin Foundation Computer Network
                              MPC at CFA.HARVARD.EDU
            URL https://www.minorplanetcenter.net/    ISSN 1523-6714
                                    2023 VN2                                    
Observations:
     K23V02N*1C2023 11 05.24837900 12 32.479+12 31 15.38         21.24GVEV085G96
     K23V02N 1C2023 11 05.25359100 12 32.540+12 32 10.79         21.61GVEV085G96
     K23V02N 1C2023 11 05.25882100 12 32.710+12 33 05.15         21.18GVEV085G96
     K23V02N 1C2023 11 05.26401900 12 32.843+12 33 59.72         20.95GVEV085G96
     K23V02N KC2023 11 05.32035100 12 34.693+12 43 42.38         21.16GVEV085I52
     K23V02N KC2023 11 05.32561800 12 34.952+12 44 36.13         21.65GVEV085I52
     K23V02N KC2023 11 05.33088100 12 35.165+12 45 30.42         21.76GVEV085I52
     K23V02N KC2023 11 05.33615600 12 35.399+12 46 24.31         21.25GVEV085I52
     K23V02N KC2023 11 06.13144100 13 54.246+14 57 08.75         21.60GVEV085I52
     K23V02N KC2023 11 06.13398500 13 54.311+14 57 32.40         21.34GVEV085I52
     K23V02N KC2023 11 06.13653400 13 54.383+14 57 56.56         21.54GVEV085I52
     K23V02N KC2023 11 06.13907700 13 54.422+14 58 19.78         21.11GVEV085I52
     K23V02N KC2023 11 07.31588400 15 19.224+17 46 55.88         21.70GVEV085V06
     K23V02N KC2023 11 07.31743900 15 19.285+17 47 07.91         21.02GVEV085V06
     K23V02N KC2023 11 07.31899400 15 19.350+17 47 19.90         21.16GVEV085V06
Observer details:
G96 Mt. Lemmon Survey.  Observer J. B. Fazekas.  Measurers E. C. Beshore, D.
    Fay, J. B. Fazekas, D. C. Fuls, A. R. Gibbs, A. D. Grauer, H. Groeller, J.
    K. Hogan, R. A. Kowalski, S. M. Larson, G. J. Leonard, D. Rankin, R. L.
    Seaman, F. C. Shelly, K. W. Wierzchos.  1.5-m reflector + 10K CCD.
I52 Steward Observatory, Mt. Lemmon Station.  Observer R. A. Kowalski.
    Measurers E. C. Beshore, D. Fay, J. B. Fazekas, D. C. Fuls, A. R. Gibbs,
    A. D. Grauer, H. Groeller, J. K. Hogan, R. A. Kowalski, S. M. Larson, G.
    J. Leonard, D. Rankin, R. L. Seaman, F. C. Shelly, K. W. Wierzchos.  1.0-m
    prime focus + CCD.
V06 Catalina Sky Survey-Kuiper.  Observer H. Groeller.  Measurers E. C.
    Beshore, D. Fay, J. B. Fazekas, D. C. Fuls, A. R. Gibbs, A. D. Grauer, H.
    Groeller, J. K. Hogan, R. A. Kowalski, S. M. Larson, G. J. Leonard, D.
    Rankin, R. L. Seaman, F. C. Shelly, K. W. Wierzchos.  1.55-m reflector +
    1K CCD.
Orbital elements:
2023 VN2                                                 Earth MOID = 0.0212 AU
Epoch 2023 Sept. 13.0 TT = JDT 2460200.5                MPC                     
M  22.93276              (2000.0)            P               Q                  
n   0.90238318     Peri.  274.90376     +0.67067794     +0.73534832             
a   1.0605766      Node    37.81563     -0.60207178     +0.61625109             
e   0.1500978      Incl.    9.12472     -0.43324435     +0.28195291             
P   1.09           H   26.61          G   0.15           U   7                  
Residuals in seconds of arc
231105 G96  0.5+  0.6-    231105 I52  0.3+  0.3-    231106 I52  0.2+  0.1+
231105 G96  0.5-  0.3+    231105 I52  0.1+  0.0     231106 I52  0.1-  0.5-
231105 G96  0.0   0.0     231105 I52  0.1+  0.2-    231107 V06  0.1-  0.1+
231105 G96  0.0   0.4+    231106 I52  0.1-  0.2+    231107 V06  0.0   0.0
231105 I52  0.3-  0.0     231106 I52  0.0   0.1-    231107 V06  0.1+  0.1-
Ephemeris:
2023 VN2                 a,e,i = 1.06, 0.15, 9                   q = 0.9014
Date    TT    R. A. (2000) Decl.     Delta      r    Elong.  Phase     V
2023 10 08    12 53 06.6 -67 07 01   0.08157 0.9632    61.5   114.2    25.5
...
2023 10 23    23 12 03.5 -70 04 58   0.03274 0.9983    94.5    83.6    22.1
...
2023 10 31    00 03 08.0 -10 21 35   0.03329 1.0182   138.6    40.2    20.8
...
2023 11 06    00 13 39.5 +14 37 20   0.05111 1.0334   144.2    34.1    21.6
2023 11 07    00 15 00.8 +17 05 00   0.05471 1.0359   143.8    34.4    21.8
2023 11 08    00 16 18.9 +19 14 15   0.05841 1.0384   143.4    34.7    22.0
...
2023 11 14    00 23 41.4 +27 51 40   0.08219 1.0536   139.7    37.4    22.8
...
2023 11 22    00 33 59.2 +33 30 57   0.1165  1.0736   135.2    40.5    23.7
...
2023 12 07    00 57 22.3 +37 55 41   0.1860  1.1095   128.0    44.4    24.9
A. U. Tomatic                (C) Copyright 2023 MPC           M.P.E.C. 2023-V85
    
    
More information about the Iaude
mailing list